Weather History for Greenwood, SC

Change the Weather History Date:

Friday, June 14, 2013

  Actual Average (KAND) Record (KAND)
Temperature  
Mean Temperature 74 °F -  
Max Temperature 86 °F 87 °F 99 °F (1981)
Min Temperature 64 °F 64 °F 55 °F (1983)
Cooling Degree Days 9    
Growing Degree Days 24 (Base 50)    
Moisture  
Dew Point 61 °F    
Average Humidity 67    
Maximum Humidity 97    
Minimum Humidity 38    
Precipitation  
Precipitation 0.00 in - - ()
Sea Level Pressure  
Sea Level Pressure 29.91 in    
Wind  
Wind Speed 19 mph (NE)    
Max Wind Speed 31 mph    
Max Gust Speed -    
Visibility 10 miles    
Events      
Averages and records for this station are not official NWS values.
T = Trace of Precipitation, MM = Missing Value Source: NWS Daily Summary

Daily Weather History Graph

Daily Weather History Graph

Search for Another Location

Airport:

Trip Planner

Search our weather history database for the weather conditions in past years. The results will help you decide how hot, cold, wet, or windy it might be!

Date:

Astronomy

Jun. 14, 2013 Rise Set
Actual Time 6:16 AM EDT 8:41 PM EDT
Civil Twilight 5:46 AM EDT 9:11 PM EDT
Nautical Twilight 5:10 AM EDT 9:47 PM EDT
Astronomical Twilight 4:31 AM EDT 10:26 PM EDT
Moon 11:37 AM EDT (6/14) No Moon Set
Length of Visible Light 15h 24m
Length of Day
14h 25m
Waxing Crescent, 30% of the Moon is Illuminated
Jun 14
Waxing Crescent
Jun 16
First Quarter
Jun 23
Full
Jun 30
Last Quarter
Jul 8
New

Hourly Weather History & Observations

Time (EDT) Temp. Heat Index Dew Point Humidity Pressure Visibility Wind Dir Wind Speed Gust Speed Precip Events Conditions
12:56 AM 71.1 °F - 70.0 °F 96% 29.80 in 10.0 mi North - - N/A   Clear
1:56 AM 70.0 °F - 69.1 °F 97% 29.80 in 10.0 mi North - - N/A   Clear
2:56 AM 69.1 °F - 68.0 °F 96% 29.81 in 10.0 mi North - - N/A   Clear
3:56 AM 66.9 °F - 66.0 °F 97% 29.83 in 9.0 mi North - - N/A   Clear
4:56 AM 68.0 °F - 64.0 °F 87% 29.84 in 10.0 mi North - - N/A   Clear
5:56 AM 66.0 °F - 63.0 °F 90% 29.86 in 10.0 mi North - - N/A   Clear
6:56 AM 64.9 °F - 62.1 °F 90% 29.88 in 10.0 mi North - - N/A   Clear
7:56 AM 69.1 °F - 62.1 °F 78% 29.90 in 10.0 mi ENE 27.6 mph - N/A   Clear
8:56 AM 72.0 °F - 61.0 °F 68% 29.92 in 10.0 mi ENE 27.6 mph - N/A   Clear
9:56 AM 75.9 °F - 59.0 °F 56% 29.94 in 10.0 mi ENE 27.6 mph - N/A   Clear
10:56 AM 78.1 °F - 59.0 °F 52% 29.94 in 10.0 mi ENE 27.6 mph - N/A   Clear
11:56 AM 81.0 °F 81.1 °F 57.9 °F 45% 29.95 in 10.0 mi ENE 29.9 mph - N/A   Clear
12:56 PM 82.0 °F 82.1 °F 59.0 °F 45% 29.93 in 10.0 mi ENE 31.1 mph - N/A   Clear
1:56 PM 82.9 °F 83.2 °F 60.1 °F 46% 29.93 in 10.0 mi North - - N/A   Clear
2:56 PM 84.0 °F 83.8 °F 59.0 °F 43% 29.93 in 10.0 mi Variable 6.9 mph - N/A   Clear
3:56 PM 84.9 °F 84.2 °F 57.9 °F 40% 29.92 in 10.0 mi North 9.2 mph - N/A   Partly Cloudy
4:56 PM 84.9 °F 84.2 °F 57.9 °F 40% 29.92 in 10.0 mi Variable 6.9 mph - N/A   Partly Cloudy
5:56 PM 84.0 °F 83.0 °F 55.9 °F 38% 29.92 in 10.0 mi NE 8.1 mph - N/A   Partly Cloudy
6:56 PM 82.0 °F 81.4 °F 55.0 °F 39% 29.94 in 10.0 mi NE 8.1 mph - N/A   Scattered Clouds
7:56 PM 78.1 °F - 57.9 °F 50% 29.96 in 10.0 mi Calm Calm - N/A   Clear
8:56 PM 73.9 °F - 60.1 °F 62% 29.98 in 10.0 mi Calm Calm - N/A   Partly Cloudy
9:56 PM 68.0 °F - 61.0 °F 78% 29.99 in 10.0 mi Calm Calm - N/A   Clear
10:56 PM 66.0 °F - 60.1 °F 81% 30.02 in 10.0 mi Calm Calm - N/A   Clear
11:56 PM 64.0 °F - 60.1 °F 87% 30.04 in 10.0 mi Calm Calm - N/A   Clear